GAOFEN 3 DEB

Satellite information

Favourite Embed

Satellite Type and Status

DEBRISIN ORBIT

Key statistics

Satellite GAOFEN 3 DEB at a glance.

Uptime

3314

Days in orbit

Revolutions

≈ 14.5

Per day

Orbit

SSO

Sun Synchronous Orbit

Inclination

98.3

Latest

Satellite identification and parameters

Extended collection of information and parameters for GAOFEN 3 DEB.

Object identification

Identified? True

Debris? True

Object name: GAOFEN 3 DEB

International designator: 2016-049C

Object number (NORAD): 42678

Object ID (CCSDS): 42678

Country: PEOPLES REPUBLIC OF CHINA (PRC)

Current information (Y/N): Y

RCS size: SMALL

Orbital parameters

Period: 99.545 minutes

Inclination: 98.3255 deg

SMA: 7114.994 km

Apoapsis: 743.518 km

Periapsis: 730.199 km

RAAN: 256.8913 deg

Eccentricy: 0.00093595

Argument of periapsis: 141.4912 deg

Mean anomaly: 218.695 deg

Mean motion: 14.46575096 rev/day

Mean motion (dot): 0.00000517 rev/day2

B* drag term: 0.00015539236 1/REarth

Two-line elements (TLE)

Creation date: Sept. 2, 2025, 10:20 a.m.

Reference frame: TEME

Reference center: EARTH

Epoch: Sept. 2, 2025, 6:57 a.m. UTC

TLE line 0: 0 GAOFEN 3 DEB

TLE line 1: 1 42678U 16049C 25245.29019753 .00000517 00000-0 15539-3 0 9990

TLE line 2: 2 42678 98.3255 256.8913 0009360 141.4912 218.6950 14.46575096472297

Live tracking on map

Real-time ground track for satellite GAOFEN 3 DEB.

In-orbit conjunctions

A list of the most updated potential collisions computed for object GAOFEN 3 DEB.

Target Orbit TCA Probability of collision Miss distance Type
NOAA 16 DEB SSO 2024-11-10 21:08:24 0.000131605 333.0 (m) DEBRIS
CBERS 1 DEB SSO 2024-07-06 02:26:24 0.0001201447 560.0 (m) DEBRIS

Associated space launch

Gaofen 3 is the first medium-sized and long life (8 years) civil satellite of China. The satellite is a C-band Synthetic Aperture Radar capable of up to 1m ground resolution.

GAOFEN 3 DEB was lifted into orbit during the mission ‘Long March 4C | Gaofen 3’, on board a Long March 4C space rocket.

The launch took place on Aug. 9, 2016, 10:55 p.m. from Launch Complex 9.

For more information about the launch, click the button.

Launch to space Long March 4C | Gaofen 3
Long March 4C | Gaofen 3

Agency: N/A

Status: Launch Successful

Launch date: Aug. 9, 2016, 10:55 p.m. UTC

Rocket: Long March 4C

Launch pad: Launch Complex 9

Location: Taiyuan Satellite Launch Center, People's Republic of China

...

Latest news about this satellite

There are no fresh news available about this satellite. Check back as we update our databases every day.


Newsletter sign-up

Weekly statistics, charts and insights to help you stay on top of the space industry.